ROMMA est une association bénévole à but non lucratif. Votre soutien est indispensable : ADHERER à ROMMA ou FAIRE un DON

Val-d'Isère - (73, Savoie)

Haute-Maurienne (1850 m)   Longitude: 6° 58' 52'' E   Latitude: 45° 26' 53'' N Station partenaire n°93
 

Détail journalier du     <<     >>

Température Precipitation Humidité Vent Dir Rafale Dir. rafale Ensol.
Heure (°C) (mm) (%) (km/h) (km/h) (min)
01:00 2.30694E11E0
02:00 1.90655E13ESE0
03:00 2.40583E13NNE0
04:00 1.90623E11ESE0
05:00 2.10636ESE15ESE0
06:00 2.20624E15ESE0
07:00 2.20627E18ESE0
08:00 2.20642E6NNE0
09:00 2.70636E15ESE30
10:00 3.90519NE24NE60
11:00 4.404910NNE27ENE60
12:00 4.805410NE27ENE60
13:00 4.20567ENE24NE30
14:00 5.20547ESE23ESE0
15:00 3.80606E27NNO0
16:00 2.506810ESE29ESE0
17:00 1.60779ESE18SE0
18:00 1.30829E19E0
19:00 0.60899E19ESE0
20:00 0.80878ENE26SE0
21:00 0.30908E18NO0
22:00 0.30918E15ESE0
23:00 0.10919E21ESE0
minuit 0.30878E16SE0

Graphique du 03-04-2019

 

Serveur OMMA